{"data":{"norad_id":69120,"epoch":"2026-09-20T03:35:35.552256Z","epoch_age_seconds":53447,"freshness":"FRESH","line1":"1 69120U 26108S   26263.14971704  .00000124  00000+0  17402-3 0  9990","line2":"2 69120  89.0205  12.4695 0001850 105.3640 254.7715 13.51022292 17325","mean_motion":13.51022292,"eccentricity":0.000185,"inclination_deg":89.0205,"raan_deg":12.4695,"arg_perigee_deg":105.364,"mean_anomaly_deg":254.7715,"bstar":0.00017402,"rev_number":1732,"period_min":106.58595409764,"perigee_km":1067.1220428457,"apogee_km":1069.8772984138,"semimajor_km":7446.6366706297,"source":"CELESTRAK","updated_at":"2026-09-20T09:00:24.683441Z"}}